Home > Weather > Plymouth > Past weeks

Flag for United Kingdom Past Weather in Plymouth, England, United Kingdom — Yesterday and Last 2 Weeks

Now
61 °F

Sunny.


Feels Like: 61 °F
Forecast: 54 / 68 °F
Wind: 6 mph from Northwest

Location: Exeter Airport

Current Time: Jul 30, 2016 at 9:52:31 PM

Latest Report: Jul 30, 2016 at 9:20 PM


Visibility: 10 mi

Pressure: 30.01 "Hg

Humidity: 77%

Dew Point: 54 °F

Location of PlymouthLocation

Past Weather in Plymouth — Graph

°F

Plymouth Temperature Yesterday

Maximum temperature yesterday: 70 °F (at 1:50 PM)
Minimum temperature yesterday: 61 °F (at 12:20 AM)
Average temperature yesterday: 64 °F

High & Low Weather Summary for the Past Weeks

 TemperatureHumidityPressure
High79 °F (Jul 17, 3:50 PM)100% (Jul 18, 5:50 AM)30.33 "Hg (Jul 18, 5:50 AM)
Low52 °F (Jul 21, 5:50 AM)47% (Jul 30, 3:50 PM)29.71 "Hg (Jul 20, 2:50 AM)
Average66 °F77%30.06 "Hg
* Reported Jul 15 8:20 PM — Jul 30 8:50 PM, Plymouth, Weather by CustomWeather, © 2016

Note: Actual official high and low records may vary slightly from our data, if they occured in-between our weather recording intervals... More about our weather records

Advertising

Plymouth Weather History for the Previous 24 Hours

Scroll right to see more
 ConditionsComfort  
Time TempWeatherWind HumidityBarometerVisibility
8:50 PM
Sat, Jul 30
63 °FSunny.9 mph73%29.98 "Hg10 mi
8:20 PM64 °FPassing clouds.9 mph68%29.98 "HgN/A
7:50 PM66 °FPassing clouds.8 mph64%29.98 "HgN/A
7:20 PM66 °FScattered clouds.5 mph64%29.98 "HgN/A
6:50 PM66 °FRain showers. Scattered clouds.8 mph64%29.95 "HgN/A
6:20 PM68 °FPassing clouds.2 mph60%29.95 "HgN/A
5:50 PM68 °FPassing clouds.6 mph64%29.95 "HgN/A
5:20 PM70 °FPassing clouds.8 mph60%29.95 "HgN/A
4:50 PM70 °FScattered clouds.7 mph60%29.95 "HgN/A
4:20 PM70 °FScattered clouds.6 mph60%29.95 "HgN/A
3:50 PM72 °FScattered clouds.3 mph47%29.95 "HgN/A
3:20 PM70 °FScattered clouds.8 mph53%29.95 "HgN/A
2:50 PM72 °FScattered clouds.5 mph50%29.95 "HgN/A
2:20 PM70 °FScattered clouds.3 mph53%29.95 "HgN/A
1:50 PM72 °FScattered clouds.5 mph50%29.95 "HgN/A
1:20 PM70 °FScattered clouds.5 mph53%29.95 "HgN/A
12:50 PM70 °FScattered clouds.5 mph57%29.95 "HgN/A
12:20 PM68 °FScattered clouds.6 mph60%29.95 "HgN/A
11:50 AM68 °FScattered clouds.5 mph60%29.95 "HgN/A
11:20 AM68 °FScattered clouds.6 mph64%29.95 "HgN/A
10:50 AM66 °FPassing clouds.3 mph68%29.95 "HgN/A
10:20 AM64 °FPassing clouds.6 mph73%29.95 "HgN/A
9:50 AM64 °FPassing clouds.5 mph73%29.95 "HgN/A
9:20 AM63 °FPassing clouds.7 mph77%29.95 "HgN/A
8:50 AM63 °FPassing clouds.6 mph77%29.95 "HgN/A
8:20 AM61 °FPassing clouds.7 mph83%29.95 "HgN/A
7:50 AM59 °FPassing clouds.7 mph82%29.95 "HgN/A
7:20 AM59 °FPassing clouds.7 mph88%29.95 "HgN/A
6:50 AM59 °FSunny.6 mph82%29.92 "Hg10 mi
6:20 AM59 °FClear.6 mph88%29.92 "Hg10 mi
5:50 AM59 °FPassing clouds.5 mph88%29.92 "HgN/A
2:50 AM61 °FPassing clouds.6 mph88%29.92 "HgN/A
2:20 AM61 °FPassing clouds.6 mph88%29.92 "HgN/A
1:50 AM61 °FPassing clouds.7 mph88%29.92 "HgN/A
1:20 AM61 °FPassing clouds.6 mph88%29.92 "HgN/A
12:50 AM61 °FPassing clouds.6 mph88%29.95 "HgN/A
12:20 AM61 °FPassing clouds.5 mph88%29.92 "HgN/A
11:50 PM
Fri, Jul 29
61 °FPassing clouds.3 mph83%29.92 "HgN/A
11:20 PM61 °FPassing clouds.3 mph88%29.92 "HgN/A
10:50 PM61 °FPassing clouds.5 mph88%29.92 "HgN/A
10:20 PM61 °FPassing clouds.3 mph88%29.92 "HgN/A
9:50 PM61 °FScattered clouds.2 mph83%29.92 "HgN/A
9:20 PM61 °FScattered clouds.3 mph88%29.92 "HgN/A
Weather by CustomWeather, © 2016

See weather overviewHow to use our weather pages